Location: Unspecified
(40.8819°N, 0.0000°E)
Time: 23:03:14
(UTC+00:00)

SEEDS - Visible Passes

Search period start: 24 April 2024 00:00
Search period end: 04 May 2024 00:00
Orbit: 554 x 564 km, 97.7° (Epoch: 24 April)

Date Brightness Start Highest point End Pass type
(mag) Time Alt. Az. Time Alt. Az. Time Alt. Az.
24 Apr ? 04:09:30 10° N 04:13:26 67° WNW 04:17:23 10° SSW visible
25 Apr ? 04:07:59 10° N 04:11:58 70° WNW 04:15:54 10° SSW visible
26 Apr ? 04:06:28 10° N 04:10:27 73° WNW 04:14:24 10° SSW visible
27 Apr ? 04:04:54 10° N 04:08:53 76° WNW 04:12:51 10° SSW visible
28 Apr ? 04:03:19 10° N 04:07:18 80° WNW 04:11:17 10° SSW visible
29 Apr ? 04:01:42 10° N 04:05:41 84° WNW 04:09:40 10° SSW visible
30 Apr ? 04:00:02 10° NNE 04:04:02 87° WNW 04:08:01 10° SSW visible
01 May ? 03:58:21 10° NNE 04:02:22 89° ESE 04:06:21 10° SSW visible
02 May ? 03:56:39 10° NNE 04:00:39 85° ESE 04:04:37 10° SSW visible
03 May ? 03:54:54 10° NNE 03:58:54 81° ESE 04:02:53 10° S visible
